[[{"header":{"parameterUnit":"m.s-1","parameterCategory":2,"la1":30.2992,"la2":30.254,"lo1":-89.0895,"lo2":-89.0443,"dy":0.0025,"dx":0.0025,"nx":19,"ny":19,"refTime":"2026-03-30T03:00:00:Z","depth":"0","parameterNumber":2,"parameterNumberName":"U-component_of_CURRENTS"},"data":[0,0,0,0.1757,0.1758,0.1764,0.1764,0.1794,0.1795,0,0,0,0,0,0,0,0,0,0,0,0.1752,0.1753,0.1757,0.1758,0.1764,0.1764,0.1794,0.1795,0,0,0,0,0,0,0,0,0,0,0,0.1752,0.1752,0.1753,0.1758,0.1765,0.1764,0.1794,0.1782,0,0,0,0,0,0,0,0,0,0,0.1772,0.1762,0.1752,0.1753,0.1758,0.1765,0.1764,0.1781,0.1783,0.18,0,0.1806,0,0.1807,0.1798,0.1798,0,0,0,0.1749,0.1761,0.177,0.1753,0.1758,0.1765,0.1759,0.1781,0.1784,0.1803,0.1806,0.1807,0.1808,0.1798,0.1799,0.1867,0.1868,0,0,0.1749,0.1746,0.1769,0.1772,0.1767,0.1759,0.1759,0.1782,0.1784,0.1806,0.1808,0.1808,0.1799,0.1799,0.1867,0.1867,0,0,0,0.1754,0.1746,0.1753,0.177,0.1774,0.1759,0.176,0.1782,0.1787,0.1808,0.1809,0.1799,0.18,0.1866,0.1867,0.1875,0,0,0,0.1753,0.1749,0.1753,0.1751,0.1773,0.1774,0.1759,0.1785,0.1788,0.1809,0.1799,0.18,0.1866,0.1867,0.1874,0.1893,0,0,0,0.1751,0.1749,0.1753,0.1751,0.1759,0.1774,0.1779,0.1785,0.1789,0.1798,0.18,0.1866,0.1867,0.1873,0.1891,0.1914,0,0,0,0.1743,0.1742,0.1753,0.1751,0.1759,0.1769,0.1779,0.1789,0.1797,0.1799,0.1866,0.1867,0.1873,0.189,0.1913,0.1842,0.1843,0,0,0.1735,0.1741,0.1739,0.1749,0.1751,0.1767,0.1786,0.1804,0.1819,0.1858,0.1859,0.1874,0.1891,0.1914,0.1894,0.1893,0,0,0,0.1731,0.1727,0.173,0.1734,0.1752,0.1778,0.1798,0.1823,0.1862,0.1831,0.1891,0.1902,0.1915,0.187,0.187,0.1744,0.1871,0.1871,0.1871,0.1694,0.1707,0.1702,0.1722,0.174,0.179,0.1827,0.187,0.1873,0.1903,0.1919,0.196,0.1912,0.1911,0.1783,0.1924,0.1924,0.1924,0.1924,0.1658,0.1643,0.1679,0.1679,0.1728,0.1756,0.1853,0.1886,0.1965,0.1953,0.1965,0.1895,0.1911,0.1774,0.1925,0.1925,0.1925,0.1925,0.1925,0.1608,0.1603,0.1617,0.1629,0.1671,0.1739,0.1818,0.191,0.1973,0.201,0.1956,0.1955,0.1826,0.2006,0.2006,0.2006,0.2006,0.2006,0.2006,0.1538,0.1556,0.1548,0.1576,0.1594,0.1665,0.1806,0.1874,0.1947,0.1978,0.1977,0.1822,0.1986,0.1972,0.2009,0.2009,0.2008,0.2008,0.2008,0.1448,0.1471,0.1457,0.1468,0.1518,0.1543,0.1694,0.18,0.1887,0.1903,0.1784,0.1961,0.1957,0.1955,0.1942,0.1969,0.1969,0.1969,0.1969,0.1387,0.1396,0.1375,0.138,0.1415,0.1485,0.1504,0.1619,0.1695,0.1684,0.1698,0.1631,0.1638,0.1611,0.1618,0.1596,0.1536,0.1535,0.1535,0.1326,0.1335,0.1297,0.1315,0.1354,0.1395,0.1361,0.137,0.1468,0.1507,0.1539,0.1557,0.145,0.1471,0.1422,0.1441,0.1404,0,0]},{"header":{"parameterUnit":"m.s-1","parameterCategory":2,"la1":30.2992,"la2":30.254,"lo1":-89.0895,"lo2":-89.0443,"dy":0.0025,"dx":0.0025,"nx":19,"ny":19,"refTime":"2026-03-30T03:00:00:Z","depth":"0","parameterNumber":3,"parameterNumberName":"V-component_of_CURRENTS"},"data":[0,0,0,-0.0147,-0.0147,-0.0178,-0.0178,-0.0218,-0.0218,0,0,0,0,0,0,0,0,0,0,0,-0.0136,-0.0136,-0.0147,-0.0147,-0.0178,-0.0178,-0.0218,-0.0218,0,0,0,0,0,0,0,0,0,0,0,-0.0136,-0.0136,-0.0136,-0.0147,-0.0177,-0.0178,-0.0218,-0.0196,0,0,0,0,0,0,0,0,0,0,-0.0168,-0.0153,-0.0136,-0.0136,-0.0148,-0.0177,-0.0178,-0.0195,-0.0198,-0.0202,0,-0.0201,0,-0.0208,-0.022,-0.022,0,0,0,-0.0155,-0.0151,-0.0159,-0.0136,-0.0148,-0.0177,-0.0166,-0.0197,-0.0199,-0.0205,-0.0202,-0.0204,-0.0208,-0.022,-0.022,-0.0206,-0.0206,0,0,-0.0153,-0.0143,-0.0157,-0.016,-0.0148,-0.0165,-0.0167,-0.0198,-0.0198,-0.0202,-0.0205,-0.0209,-0.0221,-0.0221,-0.0206,-0.0206,0,0,0,-0.0143,-0.0142,-0.015,-0.0159,-0.0163,-0.0166,-0.0168,-0.0196,-0.0199,-0.0205,-0.021,-0.0221,-0.0221,-0.0207,-0.0206,-0.0134,0,0,0,-0.0143,-0.0135,-0.0149,-0.0143,-0.0162,-0.0179,-0.0165,-0.0197,-0.0201,-0.0209,-0.0221,-0.0221,-0.0207,-0.0207,-0.0136,-0.0084,0,0,0,-0.0136,-0.0135,-0.0136,-0.0142,-0.0152,-0.0179,-0.0183,-0.0198,-0.0203,-0.022,-0.0221,-0.0208,-0.0207,-0.0139,-0.0089,-0.0045,0,0,0,-0.0128,-0.0116,-0.0136,-0.0121,-0.0152,-0.0138,-0.0183,-0.0184,-0.0193,-0.0221,-0.0207,-0.0206,-0.014,-0.0093,-0.0048,0.0058,0.0082,0,0,-0.0106,-0.0113,-0.0103,-0.0122,-0.0093,-0.0134,-0.0104,-0.0143,-0.0182,-0.02,-0.0199,-0.0135,-0.009,-0.0045,0.0111,0.0133,0,0,0,-0.0092,-0.0083,-0.0077,-0.0068,-0.0069,-0.0057,-0.0093,-0.0107,-0.0127,-0.0183,-0.0137,-0.011,-0.0085,-0.0028,-0.001,-0.0055,-0.0202,-0.0202,-0.0202,-0.0042,-0.0044,-0.0015,-0.0012,-0.0,-0.0005,0.0002,-0.0025,-0.0074,-0.0071,-0.0053,0.0031,0.0091,0.0106,0.0058,-0.0067,-0.0067,-0.0067,-0.0067,0.0007,0.0029,0.0033,0.0057,0.007,0.0089,0.009,0.0064,0.0079,0.0017,0.0038,0.0044,0.0131,0.0072,-0.0062,-0.0063,-0.0063,-0.0064,-0.0064,0.005,0.0061,0.0069,0.0107,0.0143,0.0148,0.0212,0.0196,0.0155,0.0181,0.0225,0.0225,0.0175,0.0183,0.0183,0.0184,0.0184,0.0184,0.0185,0.0089,0.01,0.0129,0.0158,0.019,0.0245,0.0289,0.0328,0.0361,0.0332,0.0332,0.0213,0.0107,0.0099,0.0191,0.019,0.0189,0.0189,0.0188,0.0139,0.0137,0.0184,0.0216,0.0289,0.0381,0.0423,0.0536,0.0555,0.0593,0.0453,0.0406,0.0396,0.0382,0.0381,0.054,0.054,0.054,0.0541,0.0172,0.0173,0.0235,0.0291,0.0375,0.0447,0.0613,0.0704,0.0682,0.0651,0.057,0.0524,0.0511,0.0502,0.0485,0.0483,0.0665,0.0665,0.0665,0.0207,0.022,0.0268,0.0311,0.0405,0.0529,0.0695,0.0824,0.0773,0.0658,0.0488,0.0482,0.0395,0.0379,0.0344,0.0324,0.0312,0,0]}],[{"header":{"parameterUnit":"m.s-1","parameterCategory":2,"la1":30.2992,"la2":30.254,"lo1":-89.0895,"lo2":-89.0443,"dy":0.0025,"dx":0.0025,"nx":19,"ny":19,"refTime":"2026-03-30T03:00:00:Z","depth":"2","parameterNumber":2,"parameterNumberName":"U-component_of_CURRENTS"},"data":[0,0,0,0.1819,0.182,0.1827,0.1827,0.1861,0.1862,0,0,0,0,0,0,0,0,0,0,0,0.1814,0.1814,0.1819,0.182,0.1827,0.1827,0.1861,0.1862,0,0,0,0,0,0,0,0,0,0,0,0.1814,0.1814,0.1814,0.182,0.1827,0.1827,0.1861,0.1847,0,0,0,0,0,0,0,0,0,0,0.1836,0.1825,0.1814,0.1814,0.182,0.1827,0.1827,0.1846,0.1848,0.1867,0,0.1872,0,0.1874,0.1865,0.1866,0,0,0,0.1811,0.1823,0.1834,0.1814,0.182,0.1827,0.1821,0.1847,0.1849,0.187,0.1873,0.1874,0.1875,0.1866,0.1866,0.1938,0.1938,0,0,0.1811,0.1808,0.1832,0.1835,0.1828,0.1821,0.1822,0.1848,0.1849,0.1873,0.1875,0.1875,0.1866,0.1867,0.1938,0.1938,0,0,0,0.1815,0.1807,0.1815,0.1834,0.1837,0.1822,0.1822,0.1848,0.1853,0.1875,0.1876,0.1866,0.1867,0.1937,0.1938,0.1943,0,0,0,0.1815,0.1811,0.1815,0.1812,0.1836,0.1838,0.1821,0.1851,0.1854,0.1876,0.1867,0.1868,0.1937,0.1938,0.1942,0.196,0,0,0,0.1812,0.181,0.1814,0.1812,0.1821,0.1838,0.1843,0.1851,0.1855,0.1866,0.1868,0.1937,0.1938,0.1941,0.1958,0.1981,0,0,0,0.1804,0.1803,0.1814,0.1812,0.1821,0.1833,0.1843,0.1854,0.1864,0.1867,0.1937,0.1938,0.1941,0.1957,0.198,0.1909,0.1909,0,0,0.1795,0.1801,0.18,0.1811,0.1814,0.1831,0.185,0.187,0.1887,0.1928,0.1929,0.1942,0.1958,0.1981,0.1962,0.1961,0,0,0,0.1793,0.1788,0.1792,0.1797,0.1816,0.1843,0.1863,0.1889,0.193,0.1899,0.196,0.197,0.1984,0.1939,0.1938,0.1942,0.1942,0.1942,0.1942,0.1754,0.1768,0.1764,0.1786,0.1804,0.1855,0.1893,0.1937,0.1941,0.1971,0.1986,0.2026,0.1978,0.1977,0.1992,0.1992,0.1992,0.1992,0.1992,0.1719,0.1704,0.1742,0.1742,0.1792,0.182,0.1919,0.1951,0.2031,0.2019,0.2031,0.1962,0.1977,0.1993,0.1993,0.1993,0.1993,0.1993,0.1993,0.1668,0.1663,0.1677,0.1691,0.1733,0.1802,0.188,0.1972,0.2036,0.2072,0.202,0.2019,0.203,0.2068,0.2068,0.2068,0.2068,0.2069,0.2069,0.1597,0.1615,0.1608,0.1637,0.1655,0.1725,0.1865,0.1933,0.2007,0.2039,0.2038,0.2052,0.205,0.2036,0.2071,0.2071,0.2071,0.207,0.207,0.1507,0.153,0.1516,0.1527,0.1577,0.1611,0.1754,0.1859,0.1944,0.196,0.2022,0.2022,0.2018,0.2018,0.2003,0.2029,0.2029,0.2029,0.2029,0.1445,0.1454,0.1433,0.1439,0.1473,0.1556,0.159,0.1693,0.1834,0.1883,0.1889,0.1837,0.1842,0.1826,0.183,0.1811,0.1787,0.1786,0.1786,0.1384,0.1393,0.1355,0.1373,0.1413,0.1474,0.1477,0.1498,0.162,0.1776,0.1843,0.2013,0.1952,0.1954,0.1941,0.1942,0.1916,0,0]},{"header":{"parameterUnit":"m.s-1","parameterCategory":2,"la1":30.2992,"la2":30.254,"lo1":-89.0895,"lo2":-89.0443,"dy":0.0025,"dx":0.0025,"nx":19,"ny":19,"refTime":"2026-03-30T03:00:00:Z","depth":"2","parameterNumber":3,"parameterNumberName":"V-component_of_CURRENTS"},"data":[0,0,0,-0.0145,-0.0146,-0.0175,-0.0175,-0.0214,-0.0214,0,0,0,0,0,0,0,0,0,0,0,-0.0134,-0.0134,-0.0145,-0.0146,-0.0175,-0.0175,-0.0214,-0.0214,0,0,0,0,0,0,0,0,0,0,0,-0.0134,-0.0134,-0.0134,-0.0146,-0.0175,-0.0175,-0.0214,-0.0193,0,0,0,0,0,0,0,0,0,0,-0.0165,-0.0151,-0.0134,-0.0134,-0.0146,-0.0175,-0.0175,-0.0192,-0.0194,-0.0199,0,-0.0198,0,-0.0204,-0.0216,-0.0216,0,0,0,-0.0153,-0.0149,-0.0157,-0.0134,-0.0146,-0.0175,-0.0164,-0.0194,-0.0196,-0.0202,-0.0199,-0.02,-0.0205,-0.0217,-0.0217,-0.0201,-0.0201,0,0,-0.0151,-0.0141,-0.0155,-0.0158,-0.0147,-0.0163,-0.0165,-0.0195,-0.0195,-0.0199,-0.0201,-0.0206,-0.0217,-0.0217,-0.0201,-0.0201,0,0,0,-0.0142,-0.014,-0.0148,-0.0157,-0.016,-0.0163,-0.0166,-0.0193,-0.0196,-0.0202,-0.0206,-0.0217,-0.0217,-0.0202,-0.0201,-0.0129,0,0,0,-0.0141,-0.0134,-0.0147,-0.0142,-0.0159,-0.0177,-0.0163,-0.0194,-0.0197,-0.0206,-0.0217,-0.0218,-0.0202,-0.0201,-0.0132,-0.008,0,0,0,-0.0134,-0.0133,-0.0135,-0.0141,-0.0151,-0.0176,-0.0181,-0.0195,-0.02,-0.0217,-0.0218,-0.0202,-0.0202,-0.0134,-0.0085,-0.004,0,0,0,-0.0127,-0.0115,-0.0134,-0.012,-0.015,-0.0135,-0.0181,-0.0181,-0.019,-0.0217,-0.0202,-0.0201,-0.0135,-0.0088,-0.0044,0.0049,0.0072,0,0,-0.0105,-0.0112,-0.0102,-0.012,-0.0092,-0.0132,-0.0101,-0.014,-0.0178,-0.0195,-0.0194,-0.0131,-0.0086,-0.0041,0.0102,0.0124,0,0,0,-0.0091,-0.0082,-0.0077,-0.0068,-0.0068,-0.0055,-0.009,-0.0103,-0.0122,-0.0179,-0.0132,-0.0105,-0.008,-0.0031,-0.0014,-0.0197,-0.0197,-0.0197,-0.0197,-0.0042,-0.0044,-0.0016,-0.0012,0.0,-0.0003,0.0005,-0.002,-0.0069,-0.0065,-0.0048,0.0035,0.0088,0.0102,-0.0062,-0.0062,-0.0062,-0.0061,-0.0061,0.0006,0.0027,0.0032,0.0055,0.007,0.009,0.0093,0.0068,0.0085,0.0023,0.0043,0.0041,0.0125,-0.0055,-0.0057,-0.0057,-0.0058,-0.0058,-0.0059,0.0048,0.0058,0.0066,0.0104,0.0141,0.0148,0.0214,0.0199,0.0159,0.0186,0.022,0.022,0.0089,0.0187,0.0187,0.0188,0.0188,0.0188,0.0189,0.0085,0.0097,0.0125,0.0155,0.0187,0.0243,0.0289,0.0329,0.0358,0.0326,0.0326,0.0119,0.0111,0.0103,0.0195,0.0194,0.0193,0.0193,0.0192,0.0134,0.0132,0.018,0.0211,0.0285,0.0369,0.0418,0.0528,0.0547,0.0581,0.0401,0.0394,0.0383,0.0369,0.0367,0.0522,0.0522,0.0522,0.0522,0.0167,0.0167,0.0229,0.0285,0.037,0.0431,0.0566,0.0603,0.0599,0.0551,0.0548,0.0499,0.0487,0.0477,0.046,0.0457,0.0635,0.0635,0.0635,0.02,0.0214,0.0261,0.0304,0.0399,0.0503,0.0605,0.0594,0.0567,0.063,0.0471,0.0549,0.0469,0.0453,0.0425,0.0403,0.0394,0,0]}],[{"header":{"parameterUnit":"m.s-1","parameterCategory":2,"la1":30.2992,"la2":30.254,"lo1":-89.0895,"lo2":-89.0443,"dy":0.0025,"dx":0.0025,"nx":19,"ny":19,"refTime":"2026-03-30T03:00:00:Z","depth":"4","parameterNumber":2,"parameterNumberName":"U-component_of_CURRENTS"},"data":[0,0,0,0.1367,0.137,0.1496,0.1496,0.1601,0.1602,0,0,0,0,0,0,0,0,0,0,0,0.1328,0.1329,0.1367,0.137,0.1496,0.1496,0.1601,0.1602,0,0,0,0,0,0,0,0,0,0,0,0.1328,0.1329,0.133,0.137,0.1496,0.1497,0.1601,0.1519,0,0,0,0,0,0,0,0,0,0,0.1404,0.1379,0.1329,0.133,0.1371,0.1496,0.1497,0.1516,0.1524,0.1528,0,0.1557,0,0.158,0.1607,0.1608,0,0,0,0.1369,0.1373,0.1404,0.133,0.1372,0.1496,0.1439,0.1521,0.1531,0.1539,0.1559,0.1563,0.1582,0.1608,0.1608,0.1699,0.1699,0,0,0.1362,0.1352,0.1397,0.141,0.1417,0.1435,0.1443,0.1528,0.1543,0.1559,0.1566,0.1583,0.1609,0.1609,0.1698,0.1699,0,0,0,0.1343,0.1347,0.1377,0.1405,0.1432,0.1439,0.1448,0.1539,0.1549,0.1567,0.1585,0.1609,0.161,0.1698,0.1699,0.1712,0,0,0,0.1339,0.1335,0.1374,0.1369,0.1431,0.1496,0.1457,0.1543,0.1554,0.1584,0.1609,0.1611,0.1698,0.1698,0.171,0.1709,0,0,0,0.132,0.1333,0.1351,0.1368,0.1422,0.1495,0.151,0.1546,0.1564,0.1608,0.1611,0.1697,0.1698,0.1709,0.1707,0.172,0,0,0,0.1299,0.1326,0.1351,0.1389,0.1421,0.1484,0.151,0.1571,0.161,0.161,0.1698,0.1698,0.1709,0.1706,0.1719,0.1515,0,0,0,0.1312,0.1327,0.1347,0.1373,0.1424,0.1466,0.1526,0.1592,0.1621,0.1665,0.1668,0.1711,0.1707,0.1719,0.1565,0,0,0,0,0.1338,0.1354,0.1374,0.1418,0.1465,0.1516,0.158,0.1612,0.1681,0.165,0.1724,0.1721,0.1728,0.1608,0.1702,0.1702,0.1702,0.1702,0.1702,0.1326,0.1357,0.1392,0.1438,0.1482,0.1559,0.1606,0.1663,0.1689,0.1727,0.1742,0.1773,0.1647,0.1757,0.1757,0.1757,0.1757,0.1757,0.1757,0.133,0.1342,0.1398,0.1445,0.1503,0.1561,0.1643,0.1682,0.1756,0.1766,0.1773,0.1642,0.1759,0.1759,0.1759,0.1758,0.1758,0.1758,0.1758,0.1301,0.1309,0.1359,0.1426,0.1494,0.1567,0.1614,0.1696,0.1761,0.1787,0.1665,0.1783,0.177,0.18,0.1801,0.1801,0.1801,0.1801,0.1801,0.1241,0.1288,0.1325,0.1402,0.1444,0.1505,0.1611,0.1642,0.1721,0.1656,0.1798,0.1787,0.1786,0.1773,0.1802,0.1801,0.1801,0.1801,0.1801,0.1189,0.1224,0.1263,0.1306,0.1377,0.1397,0.1516,0.1521,0.1545,0.1523,0.1581,0.1592,0.1566,0.1571,0.1549,0.1513,0.151,0.1507,0,0.1144,0.1165,0.1207,0.1236,0.1246,0.1321,0.1279,0.133,0.1403,0.1362,0.1566,0.1633,0.1639,0.1612,0.1612,0.1586,0,0,0,0.111,0.113,0.1134,0.1176,0.1176,0.1176,0.1254,0.1225,0.1392,0.1342,0.1444,0.146,0.1662,0.1804,0.1791,0.1789,0.1768,0,0]},{"header":{"parameterUnit":"m.s-1","parameterCategory":2,"la1":30.2992,"la2":30.254,"lo1":-89.0895,"lo2":-89.0443,"dy":0.0025,"dx":0.0025,"nx":19,"ny":19,"refTime":"2026-03-30T03:00:00:Z","depth":"4","parameterNumber":3,"parameterNumberName":"V-component_of_CURRENTS"},"data":[0,0,0,0.0037,0.0036,0.0009,0.0009,-0.0014,-0.0014,0,0,0,0,0,0,0,0,0,0,0,0.0046,0.0046,0.0037,0.0036,0.0009,0.0009,-0.0014,-0.0014,0,0,0,0,0,0,0,0,0,0,0,0.0046,0.0046,0.0046,0.0036,0.0009,0.0009,-0.0014,0.0003,0,0,0,0,0,0,0,0,0,0,0.0027,0.0034,0.0046,0.0046,0.0036,0.0009,0.0009,0.0003,0.0002,0.0004,0,0.0003,0,-0.0003,-0.0014,-0.0014,0,0,0,0.0031,0.0035,0.0031,0.0046,0.0036,0.001,0.002,0.0002,0.0,0.0002,0.0002,0.0001,-0.0004,-0.0014,-0.0015,0.0025,0.0025,0,0,0.0032,0.0038,0.0032,0.003,0.0033,0.0021,0.0019,0.0001,-0.0,0.0002,0.0001,-0.0004,-0.0015,-0.0015,0.0024,0.0025,0,0,0,0.004,0.0039,0.0034,0.0031,0.0027,0.002,0.0018,0.0,-0.0,0.0,-0.0004,-0.0015,-0.0015,0.0024,0.0025,0.0072,0,0,0,0.0041,0.0044,0.0035,0.0037,0.0027,0.0011,0.0018,0.0001,-0.0001,-0.0004,-0.0015,-0.0015,0.0023,0.0024,0.007,0.0104,0,0,0,0.0047,0.0044,0.0043,0.0038,0.0029,0.0011,0.0009,0.0,-0.0004,-0.0014,-0.0015,0.0023,0.0024,0.0068,0.01,0.0137,0,0,0,0.005,0.0052,0.0043,0.0045,0.0029,0.0036,0.0009,0.0006,-0.0,-0.0015,0.0023,0.0025,0.0067,0.0098,0.0134,0.0095,0,0,0,0.0055,0.0052,0.0054,0.0046,0.0056,0.0039,0.0065,0.004,0.0021,0.0028,0.0028,0.0071,0.01,0.0136,0.0167,0,0,0,0,0.0058,0.006,0.0061,0.0063,0.0066,0.0088,0.0067,0.0074,0.008,0.0024,0.0082,0.01,0.0121,0.009,0.0031,0.003,0.003,0.003,0.003,0.0073,0.0073,0.0084,0.009,0.0103,0.0121,0.0146,0.0155,0.0119,0.0138,0.0147,0.0221,0.0191,0.0148,0.0148,0.0149,0.0149,0.0149,0.0149,0.0088,0.0095,0.0107,0.0117,0.0148,0.0174,0.0221,0.0218,0.026,0.0216,0.0233,0.0153,0.0154,0.0153,0.0152,0.0152,0.0151,0.0151,0.0151,0.0099,0.0103,0.011,0.0137,0.0183,0.0216,0.0292,0.0312,0.0309,0.0336,0.0288,0.0263,0.0249,0.0331,0.0331,0.0331,0.0332,0.0332,0.0332,0.0107,0.0115,0.0132,0.0162,0.0195,0.0258,0.0336,0.0372,0.0377,0.0356,0.0345,0.0282,0.0276,0.0261,0.0337,0.0336,0.0336,0.0335,0.0335,0.0112,0.012,0.0149,0.0177,0.0253,0.0303,0.0371,0.0416,0.0452,0.0444,0.0368,0.0365,0.0347,0.0339,0.0325,0.0423,0.0423,0.0423,0,0.0121,0.0124,0.0167,0.0217,0.0287,0.0337,0.0395,0.0431,0.0426,0.0406,0.0446,0.0359,0.0356,0.0332,0.0326,0.0308,0,0,0,0.0129,0.0142,0.0174,0.0219,0.0299,0.0363,0.0413,0.0415,0.0415,0.0437,0.0418,0.0419,0.0379,0.0352,0.0318,0.031,0.0284,0,0]}]]